Flag for Sierra Leone Weather past 2 weeks in Kenema, Sierra Leone

Now
79 °F

Passing clouds.


Feels Like: 83 °F
Forecast: N/A
Wind: No wind

Location: Roberts Field

Current Time: Sep 21, 2014 at 10:17:32 PM

Latest Report: Sep 21, 2014 at 10:00 PM


Visibility: N/A

Pressure: 29.92 "Hg

Humidity: 94%

Dew point: 77 °F

Location of KenemaLocation

Historic Weather in Kenema — Graph

°F

Kenema temperature yesterday

Maximum temperature yesterday: 84 °F (at 12:00 PM)
Minimum temperature yesterday: 73 °F (at 12:00 AM)
Average temperature yesterday: 77 °F

Past Weeks' High & Low Weather Summary

 TemperatureHumidityPressure
High88 °F (Sep 21, 2:00 PM)100% (Sep 16, 7:30 AM)30.04 "Hg (Sep 16, 7:30 AM)
Low73 °F (Sep 8, 6:00 AM)66% (Sep 8, 2:30 PM)29.83 "Hg (Sep 12, 5:30 PM)
Average78 °F90%29.93 "Hg
* Reported Sep 6 9:00 PM — Sep 21 9:30 PM, Kenema, Weather by CustomWeather, © 2014

Note: Actual official high and low records may vary slightly from our data, if they occured in-between our weather recording intervals... More about our weather records

Advertising

Kenema weather history for previous 24 hours

 ConditionsComfort  
Time TempWeatherWind HumidityBarometerVisibility
9:30 PM
Sep 21
79 °FPassing clouds.No wind94%29.89 "HgN/A
9:00 PM79 °FPassing clouds.No wind94%29.92 "HgN/A
8:30 PM79 °FPassing clouds.No wind94%29.92 "HgN/A
8:00 PM79 °FPassing clouds.3 mph94%29.92 "HgN/A
7:30 PM79 °FPartly sunny.No wind94%29.89 "HgN/A
7:00 PM79 °FPartly sunny.5 mph94%29.89 "HgN/A
6:30 PM79 °FPartly sunny.No wind94%29.89 "HgN/A
6:00 PM79 °FDrizzle. Partly sunny.9 mph89%29.86 "HgN/A
5:30 PM79 °FDrizzle. Partly sunny.6 mph89%29.86 "Hg6 mi
5:00 PM79 °FLight rain. Partly sunny.3 mph89%29.86 "Hg6 mi
4:30 PM82 °FLight rain. Partly sunny.8 mph79%29.86 "Hg5 mi
4:00 PM84 °FPartly sunny.9 mph74%29.83 "HgN/A
3:00 PM86 °FPartly sunny.12 mph75%29.83 "HgN/A
2:30 PM86 °FPartly sunny.13 mph75%29.86 "HgN/A
2:00 PM88 °FPartly sunny.No wind70%29.89 "HgN/A
1:30 PM86 °FPartly sunny.No wind75%29.89 "HgN/A
1:00 PM86 °FScattered clouds.3 mph70%29.92 "HgN/A
12:30 PM84 °FBroken clouds.5 mph79%29.95 "HgN/A
12:00 PM82 °FBroken clouds.5 mph79%29.95 "HgN/A
11:30 AM82 °FBroken clouds.3 mph79%29.98 "HgN/A
11:00 AM82 °FBroken clouds.5 mph79%29.98 "HgN/A
10:30 AM81 °FBroken clouds.5 mph84%30.01 "HgN/A
10:00 AM81 °FBroken clouds.7 mph84%30.01 "HgN/A
9:30 AM82 °FBroken clouds.5 mph79%29.98 "HgN/A
9:00 AM81 °FScattered clouds.No wind84%29.98 "HgN/A
8:00 AM77 °FScattered clouds.No wind94%29.98 "HgN/A
7:30 AM77 °FScattered clouds.No wind94%29.95 "Hg5 mi
7:00 AM75 °FPassing clouds.No wind94%29.95 "Hg4 mi
6:30 AM75 °FPassing clouds.3 mph94%29.92 "Hg4 mi
6:00 AM75 °FPassing clouds.No wind94%29.92 "Hg4 mi
5:30 AM75 °FPassing clouds.3 mph94%29.92 "Hg4 mi
4:00 AM77 °FPassing clouds.No wind94%29.92 "Hg4 mi
12:00 AM77 °FPassing clouds.No wind94%29.95 "HgN/A
11:30 PM
Sep 20
77 °FPassing clouds.No wind94%29.98 "HgN/A
11:00 PM77 °FPassing clouds.No wind94%29.98 "HgN/A
10:30 PM77 °FPassing clouds.No wind94%29.98 "HgN/A
10:00 PM77 °FPassing clouds.No wind94%29.98 "HgN/A
Weather by CustomWeather, © 2014

See weather overviewHow to use our weather pages